OpenBCM V2.0.2 (Linux)

Packet Radio Mailbox

IZ3LSV

[San Dona' di P. JN]

 Login: GUEST





  
I0OJJ  > KEPS     20.11.25 03:00l 310 Lines 14714 Bytes #19 (0) @ AMSAT
BID : ORB25324.1
Read: GUEST
Subj: 2Line Orbital Elements 25324.AMSAT
Path: IZ3LSV<I3XTY<I0OJJ
Sent: 251120/0021z @:I0OJJ.ITA.EU [Rome] obcm1.08-11-2-gbfe9
From: I0OJJ @ I0OJJ.ITA.EU (Gustavo)
To:   KEPS @ AMSAT
X-Info: This message was generated automatically


QST de W1STR

AMSAT Orbital Elements for Amateur Satellites in TLE Format
From Orbital Analysis Office
New England Sci-Tech STEM Education Center
Natick MA November 20, 2025
To all radio amateurs


These element sets describe the orbits of various satellites 
in use by the amateur radio community. For details see:
www.amsat.org/keplerian-elements-formats/

A daily update of element sets is available at:
www.amsat.org/tle/daily-bulletin.txt
or without bulletin text:
www.amsat.org/tle/dailytle.txt


AO-07
1 07530U 74089B   25323.77816851 -.00000034  00000-0  80183-4 0  9993
2 07530 101.9973 329.8038 0012236 169.8964   3.5975 12.53693549334272
UO-11
1 14781U 84021B   25323.82746773  .00001531  00000-0  16426-3 0  9997
2 14781  97.7776 287.2181 0008379 146.4963 213.6786 14.90030856225946
AO-27
1 22825U 93061C   25323.64292278  .00000163  00000-0  79329-4 0  9997
2 22825  98.7179  25.8520 0008315   2.8603 357.2626 14.30864710677038
FO-29
1 24278U 96046B   25323.26143365  .00000010  00000-0  49444-4 0  9993
2 24278  98.5479 195.5449 0348864 281.0323  75.1772 13.53260870444776
GO-32
1 25397U 98043D   25323.66615692  .00000121  00000-0  72398-4 0  9993
2 25397  98.9899 306.3480 0002329  94.8453 265.2991 14.24367889421501
ISS
1 25544U 98067A   25323.31903918  .00014458  00000-0  26247-3 0  9995
2 25544  51.6333 258.3957 0004144  86.8503 273.2960 15.49817487539229
NO-44
1 26931U 01043C   25323.68544021  .00000249  00000-0  12409-3 0  9998
2 26931  67.0516  66.0963 0007294 271.2263  88.8003 14.31836560260454
SO-50
1 27607U 02058C   25323.66484838  .00001835  00000-0  23790-3 0  9990
2 27607  64.5549  56.9085 0070889 300.8712  58.5434 14.82262416233398
CO-55
1 27844U 03031E   25323.47566825  .00000473  00000-0  22429-3 0  9996
2 27844  98.6767 329.6783 0010676  76.5560 283.6808 14.24151423161827
CO-57
1 27848U 03031J   25323.50120553  .00000386  00000-0  18916-3 0  9997
2 27848  98.6794 329.5841 0010626  92.4845 267.7550 14.23463728161542
RS-22
1 27939U 03042A   25323.89880340  .00001817  00000-0  29188-3 0  9992
2 27939  98.3366 137.4933 0010758 207.5572 288.7906 14.72876738184732
CO-58
1 28895U 05043F   25323.39525547  .00002224  00000-0  36404-3 0  9999
2 28895  98.2711 110.0826 0014920 147.7569 212.4552 14.71766936 70889
CO-65
1 32785U 08021C   25323.86149693  .00006477  00000-0  44046-3 0  9992
2 32785  97.8062 296.6358 0010583  30.7772 329.4073 15.06645502953640
CO-66
1 32791U 08021J   25323.47396091  .00017048  00000-0  70198-3 0  9995
2 32791  97.7420 307.8411 0003153  12.4901 347.6413 15.24186791955254
RS-30
1 32953U 08025A   25323.85468111  .00000022  00000-0  83402-4 0  9991
2 32953  82.4995 125.6573 0019723  50.3744 309.9073 12.43171061793685
SRMSAT
1 37841U 11058D   25323.82680455  .00000468  00000-0  11035-3 0  9992
2 37841  19.9716 246.6314 0011823  61.4118 330.7820 14.11500607728207
ZACUBE-1
1 39417U 13066B   25323.82754241  .00005698  00000-0  47038-3 0  9991
2 39417  97.8010 280.3460 0040709 223.4935 136.3075 14.98746636649347
Delfi-N3xt
1 39428U 13066N   25323.73107220  .00007163  00000-0  68122-3 0  9998
2 39428  97.8333 239.7799 0079469 180.7175 179.3942 14.91363478643364
GOMX-1
1 39430U 13066Q   25323.80329674  .00002537  00000-0  39188-3 0  9998
2 39430  97.6611 172.3631 0131589  30.1468 330.7228 14.68437819639175
LO-74
1 39440U 13066AA  25323.59829404  .00006588  00000-0  63931-3 0  9994
2 39440  97.8676 267.3100 0060421   3.5574 356.6062 14.91610217645725
AO-73
1 39444U 13066AE  25323.46149345  .00008891  00000-0  61322-3 0  9994
2 39444  97.8019 286.4684 0038611 193.6782 166.3401 15.05438278648061
DTUSAT-2
1 40030U 14033W   25323.43247339  .00009754  00000-0  58422-3 0  9997
2 40030  98.0734 303.5997 0006928 221.0342 139.0366 15.11211021620961
EO-80
1 40032U 14033Y   25323.44422838  .00008972  00000-0  53672-3 0  9992
2 40032  98.0613 303.0390 0008334 155.9229 204.2391 15.11272582620943
LILACSAT-2
1 40908U 15049K   25323.86210492  .00019425  00000-0  43007-3 0  9995
2 40908  97.4936 348.5543 0006437 299.7959  60.2648 15.43813158563372
IO-86
1 40931U 15052B   25151.18580175  .00001241  00000-0  78118-4 0  9996
2 40931   6.0006  24.0987 0012733 338.8432  21.1169 14.78805930523159
Horyu-4
1 41340U 16012D   25323.10271270  .00040914  00000-0  75231-3 0  9996
2 41340  30.9931 111.9213 0005620 357.9225   2.1400 15.47933550537883
Lapan A3
1 41603U 16040E   25323.89069819  .00005125  00000-0  17160-3 0  9991
2 41603  97.1421 322.2836 0012287  52.3476 307.8879 15.31303105522769
CAS-2T
1 41847U 16066G   25323.68955382  .00001256  00000-0  18507-3 0  9992
2 41847  98.4062  36.6547 0344892  44.9483 317.9083 14.44057440474557
TechnoSat
1 42829U 17042E   25323.43125126  .00003607  00000-0  27005-3 0  9991
2 42829  97.4033 124.6514 0020318  89.4498 270.9056 15.03160405455178
AO-91
1 43017U 17073E   25323.16276054  .00012451  00000-0  59583-3 0  9995
2 43017  97.4971 189.9031 0162330 332.0624  27.1958 15.08142516433689
S-Net D
1 43186U 18014G   25323.49171483  .00006840  00000-0  38052-3 0  9997
2 43186  97.5486 224.7739 0009839  33.8121 326.3736 15.13945546427000
S-Net B
1 43187U 18014H   25323.69768938  .00005899  00000-0  32887-3 0  9990
2 43187  97.5491 224.9575 0010398  28.3258 331.8537 15.13923738427031
S-Net A
1 43188U 18014J   25323.68980168  .00006464  00000-0  35968-3 0  9993
2 43188  97.5502 225.1225 0010287  28.9560 331.2240 15.13953594427037
S-Net C
1 43189U 18014K   25323.23791083  .00006293  00000-0  35056-3 0  9999
2 43189  97.5516 224.7159 0011592  22.8875 337.2871 15.13913427425514
Ten-Koh
1 43677U 18084G   25323.45694624  .00004040  00000-0  31639-3 0  9996
2 43677  98.0693 142.1445 0009204  90.2525 269.9753 15.01591031384678
PO-101
1 43678U 18084H   25323.82809421  .00002644  00000-0  22182-3 0  9992
2 43678  98.1039 146.3715 0007405 102.2451 257.9600 14.99278309384835
QO-100
1 43700U 18090A   25323.30987017  .00000000  00000-0  00000-0 0  9992
2 43700   0.0152 323.2626 0002390 316.7260 275.9268  1.00271723 25578
MinXSS-2
1 43758U 18099A   25323.65876094  .00024290  00000-0  76249-3 0  9992
2 43758  97.4839  30.7362 0009042 302.2505  57.7860 15.32981029381883
AO-95
1 43770U 18099N   25323.11657298  .00012415  00000-0  55978-3 0  9992
2 43770  97.4717  19.5850 0009987  14.6901 345.4623 15.21124788381222
SNUSat 2
1 43782U 18099AA  25323.05936494  .00008750  00000-0  43686-3 0  9996
2 43782  97.4395  14.8787 0010074 316.0838  43.9594 15.17684574381115
SnugLite
1 43784U 18099AC  25323.10963434  .00012576  00000-0  56145-3 0  9993
2 43784  97.4205  14.8946 0002224 333.6959  26.4164 15.21500804381310
ITASat 1
1 43786U 18099AE  25323.59329367  .00006989  00000-0  37074-3 0  9990
2 43786  97.4361  14.3925 0013684   9.5026 350.6463 15.15584291381121
EAGLET 1
1 43790U 18099AJ  25323.59206583  .00004349  00000-0  26528-3 0  9999
2 43790  97.4561  13.7268 0011383 357.8113   2.3065 15.10797478380666
ESEO
1 43792U 18099AL  25323.58641130  .00001978  00000-0  14973-3 0  9997
2 43792  97.4286   4.7137 0011213 336.2132  23.8574 15.03362607380309
JO-97
1 43803U 18099AX  25323.60750164  .00014374  00000-0  56372-3 0  9994
2 43803  97.4457  21.5137 0005383 298.7690  61.3007 15.25845084381589
Suomi 100
1 43804U 18099AY  25323.13214975  .00012373  00000-0  53611-3 0  9998
2 43804  97.4525  19.7885 0010014 304.6671  55.3621 15.22487366381394
ISAT
1 43879U 18111D   25323.74452429  .00036180  00000-0  91690-3 0  9991
2 43879  97.5905 242.5656 0007111   7.7049 352.4304 15.39605310378704
UWE-4
1 43880U 18111E   25323.73140368  .00024314  00000-0  76444-3 0  9994
2 43880  97.5846 239.6474 0010896  10.5141 349.6326 15.32913489378551
Sparrow
1 43881U 18111F   25323.76099051  .00040079  00000-0  94923-3 0  9998
2 43881  97.6085 246.2028 0007748  42.2269 317.9572 15.41634493378828
Prox-1
1 44339U 19036A   25323.58862366  .00014366  00000-0  16383-2 0  9994
2 44339  23.9967  67.9917 0007452 130.3408 229.7742 14.84348189342223
Taurus 1
1 44530U 19059C   25323.88294557  .00011021  00000-0  19015-2 0  9996
2 44530  98.6221 111.4877 0008942 244.8987 115.1289 14.68627550327889
Duchifat 3
1 44854U 19089C   25323.51924498  .00402743  00000-0  16626-2 0  9992
2 44854  36.9308  21.9470 0008610 115.8892 244.2765 15.83842064328439
TO-108
1 44881U 19093C   25323.80725601  .00001388  00000-0  16450-3 0  9990
2 44881  97.7785  35.9497 0014883  58.8980 301.3694 14.86029526320317
FloripaSat 1
1 44885U 19093G   25323.84542801  .00008754  00000-0  69201-3 0  9993
2 44885  97.8071  51.9356 0012093  45.9773 314.2445 15.00842079321210
RS-44
1 44909U 19096E   25323.71618536  .00000002  00000-0 -29510-4 0  9997
2 44909  82.5188 118.9088 0216510 274.1392  83.4992 12.79745489275553
SALSAT
1 46495U 20068K   25323.71295019  .00009346  00000-0  36843-3 0  9992
2 46495  97.8764 309.7556 0009476 325.4262  34.6358 15.25779323283372
CSS (TIANHE-1)
1 48274U 21035A   25323.84131752  .00018215  00000-0  22811-3 0  9996
2 48274  41.4652 155.6342 0007353 198.6203 161.4367 15.59322159260459
TUBIN
1 48900U 21059X   25323.84886105  .00297557  35279-4  92997-3 0  9997
2 48900  97.6641 148.9741 0002039 330.5992  29.5166 15.91492081245667
CUTE
1 49263U 21088D   25323.64812889  .00028217  00000-0  39465-3 0  9994
2 49263  97.4378  45.4952 0005332   7.8807 352.2531 15.56782127229701
TeikyoSat 4
1 49396U 21102B   25323.58551802  .00002845  00000-0  18616-3 0  9990
2 49396  97.3926 356.0540 0010885 297.8254  62.1872 15.08491556221118
Z-Sat
1 49399U 21102E   25323.81146998  .00005923  00000-0  30969-3 0  9990
2 49399  97.3612   0.4464 0015719 256.1748 103.7736 15.16131046221693
